When you browse on this site, cookies collect data to enhance your experience and personalize the content and advertising you see.
Visit our Privacy Policy to learn more. By continuing to use the site, you agree to this use of cookies and data.
  • în România
  • Lista ţărilor
  • Pe 7 zile
  • Temperatura apei
  • Meteo pe hartă
  • Widget-uri
  • user-avatar
    Intrare

    Meteo pe oră la Ganja

    Astăzi, 20 Octombrie, Duminică

    Timp Temperatura Precipitaţii Vânt Presiune Umiditate
    00:00 +18°C° 0 mm 2 m/s 729 mmHg 76%
    01:00 +17°C° 0 mm 2 m/s 728 mmHg 79%
    02:00 +18°C° 0 mm 1 m/s 728 mmHg 82%
    03:00 +16°C° 0 mm 1 m/s 728 mmHg 85%
    04:00 +16°C° 0 mm 1 m/s 729 mmHg 86%
    05:00 +16°C° 0 mm 1 m/s 729 mmHg 86%
    06:00 +16°C° 0 mm 1 m/s 729 mmHg 86%
    07:00 +16°C° 0 mm 1 m/s 729 mmHg 83%
    08:00 +18°C° 0 mm 1 m/s 729 mmHg 80%
    09:00 +19°C° 0 mm 1 m/s 729 mmHg 76%
    10:00 +20°C° 0 mm 1 m/s 729 mmHg 74%
    11:00 +20°C° 0 mm 2 m/s 729 mmHg 72%
    12:00 +20°C° 0 mm 2 m/s 729 mmHg 70%
    13:00 +21°C° 0.1 mm 2 m/s 729 mmHg 65%
    14:00 +23°C° 0.1 mm 2 m/s 729 mmHg 61%
    15:00 +23°C° 0.1 mm 2 m/s 728 mmHg 57%
    16:00 +21°C° 0 mm 2 m/s 729 mmHg 60%
    17:00 +20°C° 0 mm 2 m/s 729 mmHg 63%
    18:00 +19°C° 0 mm 2 m/s 729 mmHg 66%
    19:00 +19°C° 0 mm 2 m/s 729 mmHg 67%
    20:00 +18°C° 0 mm 2 m/s 729 mmHg 68%
    21:00 +18°C° 0 mm 2 m/s 730 mmHg 69%
    22:00 +17°C° 0 mm 2 m/s 730 mmHg 72%
    23:00 +17°C° 0 mm 2 m/s 730 mmHg 75%

    Mâine, 21 Octombrie, Luni

    Timp Temperatura Precipitaţii Vânt Presiune Umiditate
    00:00 +16°C° 0 mm 2 m/s 730 mmHg 78%
    01:00 +16°C° 0 mm 2 m/s 730 mmHg 80%
    02:00 +15°C° 0 mm 1 m/s 730 mmHg 83%
    03:00 +15°C° 0 mm 1 m/s 730 mmHg 85%
    04:00 +14°C° 0 mm 1 m/s 730 mmHg 86%
    05:00 +14°C° 0 mm 1 m/s 730 mmHg 86%
    06:00 +14°C° 0 mm 1 m/s 730 mmHg 87%
    07:00 +15°C° 0 mm 1 m/s 730 mmHg 83%
    08:00 +16°C° 0 mm 1 m/s 730 mmHg 78%
    09:00 +18°C° 0 mm 1 m/s 731 mmHg 74%
    10:00 +18°C° 0 mm 2 m/s 730 mmHg 70%
    11:00 +19°C° 0 mm 2 m/s 730 mmHg 67%
    12:00 +20°C° 0 mm 2 m/s 730 mmHg 64%
    13:00 +20°C° 0 mm 2 m/s 730 mmHg 59%
    14:00 +21°C° 0 mm 2 m/s 730 mmHg 55%
    15:00 +21°C° 0 mm 2 m/s 729 mmHg 51%
    16:00 +20°C° 0 mm 2 m/s 729 mmHg 52%
    17:00 +19°C° 0 mm 2 m/s 729 mmHg 53%
    18:00 +18°C° 0 mm 2 m/s 729 mmHg 54%
    19:00 +18°C° 0 mm 2 m/s 729 mmHg 54%
    20:00 +17°C° 0 mm 2 m/s 730 mmHg 55%
    21:00 +18°C° 0 mm 1 m/s 730 mmHg 55%
    22:00 +16°C° 0 mm 2 m/s 730 mmHg 59%
    23:00 +16°C° 0 mm 2 m/s 730 mmHg 62%

    Poimâine, 22 Octombrie, Marţi

    Timp Temperatura Precipitaţii Vânt Presiune Umiditate
    00:00 +15°C° 0 mm 2 m/s 729 mmHg 65%
    01:00 +14°C° 0 mm 2 m/s 729 mmHg 68%
    02:00 +14°C° 0 mm 1 m/s 729 mmHg 71%
    03:00 +13°C° 0 mm 1 m/s 729 mmHg 73%
    04:00 +13°C° 0 mm 1 m/s 729 mmHg 75%
    05:00 +13°C° 0 mm 1 m/s 729 mmHg 76%
    06:00 +11°C° 0 mm 0 m/s 729 mmHg 77%
    07:00 +14°C° 0 mm 1 m/s 729 mmHg 72%
    08:00 +15°C° 0 mm 1 m/s 729 mmHg 67%
    09:00 +16°C° 0 mm 1 m/s 729 mmHg 62%
    10:00 +18°C° 0 mm 1 m/s 729 mmHg 58%
    11:00 +18°C° 0 mm 2 m/s 729 mmHg 55%
    12:00 +19°C° 0 mm 2 m/s 729 mmHg 51%
    13:00 +20°C° 0 mm 2 m/s 728 mmHg 49%
    14:00 +20°C° 0 mm 2 m/s 728 mmHg 47%
    15:00 +20°C° 0 mm 2 m/s 727 mmHg 46%
    16:00 +19°C° 0 mm 2 m/s 728 mmHg 49%
    17:00 +18°C° 0 mm 2 m/s 728 mmHg 52%
    18:00 +17°C° 0 mm 2 m/s 728 mmHg 55%
    19:00 +17°C° 0 mm 2 m/s 728 mmHg 57%
    20:00 +16°C° 0 mm 1 m/s 728 mmHg 59%
    21:00 +16°C° 0 mm 1 m/s 728 mmHg 61%
    22:00 +15°C° 0 mm 1 m/s 728 mmHg 63%
    23:00 +15°C° 0 mm 1 m/s 728 mmHg 65%

    23 Octombrie, Miercuri

    Timp Temperatura Precipitaţii Vânt Presiune Umiditate
    00:00 +14°C° 0 mm 1 m/s 728 mmHg 67%
    01:00 +14°C° 0 mm 1 m/s 728 mmHg 71%
    02:00 +14°C° 0 mm 1 m/s 728 mmHg 74%
    03:00 +13°C° 0 mm 1 m/s 728 mmHg 77%
    04:00 +13°C° 0 mm 1 m/s 728 mmHg 80%
    05:00 +12°C° 0 mm 1 m/s 728 mmHg 82%
    06:00 +12°C° 0 mm 1 m/s 728 mmHg 84%
    07:00 +13°C° 0 mm 1 m/s 729 mmHg 78%
    08:00 +15°C° 0 mm 1 m/s 729 mmHg 72%
    09:00 +16°C° 0 mm 2 m/s 729 mmHg 66%
    10:00 +17°C° 0 mm 2 m/s 729 mmHg 61%
    11:00 +18°C° 0 mm 3 m/s 729 mmHg 57%
    12:00 +19°C° 0 mm 3 m/s 728 mmHg 53%
    13:00 +19°C° 0 mm 3 m/s 728 mmHg 52%
    14:00 +20°C° 0 mm 3 m/s 728 mmHg 51%
    15:00 +20°C° 0 mm 3 m/s 728 mmHg 49%
    16:00 +19°C° 0 mm 3 m/s 728 mmHg 55%
    17:00 +18°C° 0 mm 3 m/s 728 mmHg 60%
    18:00 +17°C° 0 mm 2 m/s 728 mmHg 66%
    19:00 +16°C° 0 mm 2 m/s 729 mmHg 67%
    20:00 +16°C° 0 mm 2 m/s 729 mmHg 69%
    21:00 +15°C° 0 mm 1 m/s 729 mmHg 71%
    22:00 +15°C° 0 mm 1 m/s 729 mmHg 74%
    23:00 +15°C° 0 mm 2 m/s 729 mmHg 77%

    24 Octombrie, Joi

    Timp Temperatura Precipitaţii Vânt Presiune Umiditate
    00:00 +14°C° 0 mm 2 m/s 729 mmHg 80%
    01:00 +14°C° 0 mm 2 m/s 729 mmHg 82%
    02:00 +13°C° 0 mm 1 m/s 729 mmHg 85%
    03:00 +13°C° 0 mm 1 m/s 729 mmHg 87%
    04:00 +13°C° 0 mm 1 m/s 729 mmHg 87%
    05:00 +13°C° 0 mm 1 m/s 729 mmHg 87%
    06:00 +12°C° 0 mm 0 m/s 729 mmHg 86%
    07:00 +14°C° 0 mm 1 m/s 729 mmHg 82%
    08:00 +15°C° 0 mm 1 m/s 729 mmHg 78%
    09:00 +16°C° 0 mm 2 m/s 729 mmHg 73%
    10:00 +17°C° 0 mm 2 m/s 729 mmHg 70%
    11:00 +18°C° 0 mm 2 m/s 728 mmHg 66%
    12:00 +19°C° 0 mm 2 m/s 728 mmHg 62%
    13:00 +19°C° 0 mm 2 m/s 728 mmHg 62%
    14:00 +19°C° 0 mm 2 m/s 727 mmHg 61%
    15:00 +19°C° 0 mm 2 m/s 727 mmHg 61%
    16:00 +18°C° 0 mm 2 m/s 727 mmHg 64%
    17:00 +17°C° 0 mm 2 m/s 727 mmHg 67%
    18:00 +18°C° 0 mm 1 m/s 727 mmHg 69%
    19:00 +16°C° 0 mm 1 m/s 728 mmHg 72%
    20:00 +16°C° 0 mm 1 m/s 728 mmHg 74%
    21:00 +15°C° 0 mm 1 m/s 728 mmHg 76%
    22:00 +15°C° 0 mm 1 m/s 728 mmHg 78%
    23:00 +15°C° 0 mm 1 m/s 727 mmHg 79%

    25 Octombrie, Vineri

    Timp Temperatura Precipitaţii Vânt Presiune Umiditate
    00:00 +15°C° 0 mm 1 m/s 727 mmHg 81%
    01:00 +14°C° 0 mm 1 m/s 727 mmHg 82%
    02:00 +14°C° 0 mm 1 m/s 727 mmHg 84%
    03:00 +13°C° 0 mm 0 m/s 727 mmHg 86%
    04:00 +13°C° 0 mm 0 m/s 727 mmHg 87%
    05:00 +12°C° 0 mm 0 m/s 727 mmHg 88%
    06:00 +12°C° 0 mm 0 m/s 727 mmHg 89%
    07:00 +13°C° 0 mm 0 m/s 727 mmHg 83%
    08:00 +15°C° 0 mm 1 m/s 727 mmHg 78%
    09:00 +18°C° 0 mm 1 m/s 727 mmHg 72%
    10:00 +18°C° 0 mm 1 m/s 727 mmHg 69%
    11:00 +18°C° 0 mm 2 m/s 727 mmHg 66%
    12:00 +19°C° 0 mm 2 m/s 726 mmHg 63%
    13:00 +19°C° 0 mm 2 m/s 726 mmHg 63%
    14:00 +19°C° 0 mm 2 m/s 726 mmHg 63%
    15:00 +19°C° 0 mm 2 m/s 726 mmHg 63%
    16:00 +19°C° 0 mm 2 m/s 726 mmHg 65%
    17:00 +18°C° 0 mm 2 m/s 726 mmHg 68%
    18:00 +18°C° 0 mm 2 m/s 726 mmHg 71%
    19:00 +18°C° 0 mm 2 m/s 726 mmHg 74%
    20:00 +17°C° 0 mm 2 m/s 726 mmHg 76%
    21:00 +17°C° 0 mm 2 m/s 726 mmHg 79%
    22:00 +17°C° 0.3 mm 2 m/s 726 mmHg 82%
    23:00 +18°C° 0.3 mm 1 m/s 726 mmHg 85%
    Arată mai mult